Location: Chacón
(10.5789°N, 66.9317°W)
Time: 15:53:24
(UTC+00:00)

Cosmos 1339 Rocket - Pass Details

Date: 18 August 2024
Orbit: 941 x 1006 km, 82.9° (Epoch: 17 September)

Event Time Altitude Azimuth Distance (km) Brightness Sun altitude
Rises 23:24:39 0° 330° (NNW) 3,605 8.2 -10.4°
Reaches altitude 10° 23:27:46 10° 315° (NW) 2,669 7.8 -11.1°
Maximum altitude 23:32:04 20° 269° (W) 2,039 7.2 -12.2°
Drops below altitude 10° 23:36:25 10° 224° (SW) 2,697 7.2 -13.2°
Sets 23:39:38 0° 208° (SSW) 3,656 7.7 -14.0°
